Location: *
(50.6089°N, 2.2719°E)
Time: 13:53:48
(UTC+00:00)

CZ-2D R/B - Pass Details

Date: 18 October 2019
Orbit: 522 x 538 km, 97.4° (Epoch: 13 November)

Event Time Altitude Azimuth Distance (km) Brightness Sun altitude
Rises 18:23:20 0° 162° (SSE) 2,663 6.6 -15.0°
Reaches altitude 10° 18:25:25 10° 161° (SSE) 1,781 5.7 -15.3°
Maximum altitude 18:29:15 78° 76° (ENE) 553 3.1 -15.9°
Drops below altitude 10° 18:33:09 10° 349° (N) 1,805 6.1 -16.5°
Sets 18:35:17 0° 348° (NNW) 2,703 7.1 -16.9°
